Location: Ettringen
(48.1054°N, 10.6545°E)
Time: 20:00:41
(UTC+00:00)

Cosmos 1092 Rocket - Pass Details

Date: 18 November 2025
Orbit: 953 x 994 km, 82.9° (Epoch: 10 December)

Event Time Altitude Azimuth Distance (km) Brightness Sun altitude
Rises 18:08:09 0° 351° (N) 3,693 7.1 -25.1°
Reaches altitude 10° 18:10:41 10° 351° (N) 2,735 6.4 -25.6°
Maximum altitude 18:16:58 87° 79° (E) 976 3.8 -26.6°
Drops below altitude 10° 18:23:09 10° 172° (S) 2,689 6.2 -27.6°
Sets 18:25:37 0° 172° (S) 3,626 6.9 -28.1°
